{"data":{"norad_id":51729,"intl_designator":"2022-016R","name":"STARLINK-3523","alt_names":[],"object_type":"PAYLOAD","status":"ACTIVE","operator":null,"country":"US","launch_date":"2022-02-21","launch_site_code":"AFETR","launch_vehicle":null,"mission":null,"orbit_class":"UNKNOWN","rcs_meters":null,"size_class":null,"mass_kg":null,"dimensions":null,"purposes":["comms"],"wikipedia_slug":null,"has_3d_model":false,"image_url":null,"decayed_at":null,"tle_current":{"epoch":"2026-05-24T19:04:55.424352Z","epoch_age_seconds":96049,"freshness":"FRESH","line1":"1 51729U 22016R   26144.79508593  .00000336  00000+0  39220-4 0  9999","line2":"2 51729  53.2151 337.4687 0001317  89.3674 270.7469 15.08841859235059","mean_motion":15.08841859,"eccentricity":0.0001317,"inclination_deg":53.2151,"raan_deg":337.4687,"arg_perigee_deg":89.3674,"mean_anomaly_deg":270.7469,"bstar":3.922e-5,"rev_number":23505,"period_min":95.437437091941,"perigee_km":538.82662265176,"apogee_km":540.64879084952,"semimajor_km":6917.8747067506,"source":"CELESTRAK","updated_at":"2026-05-25T13:38:16.922640Z"}}}